Location: Dalton
(42.4737°N, 73.1662°W)
Time: 18:53:59
(UTC+00:00)

Envisat - Pass Details

Date: 27 September 2024
Orbit: 762 x 764 km, 98.3° (Epoch: 09 October)

Event Time Altitude Azimuth Distance (km) Brightness Sun altitude
Rises 06:35:54 0° 34° (NE) 3,233 7.1 -42.2°
Reaches altitude 10° 06:39:38 10° 62° (ENE) 2,300 6.0 -41.8°
Enters shadow 06:40:35 12° 73° (ENE) 2,171 5.8 -41.7°
